Torna al catalogo

FENGYUN 2A AKM

AttivoMEO
NORAD 25611·ROCKET BODY·🇨🇳 China

Lanciato Jun 10, 1997 da Xichang Satellite Launch Center

Loading…

Prossimi Passaggi (prossime 24 ore)

TLE

AggiornatoSource: Space-Track

Epoca: Sep 14, 2026, 05:43 UTC

1 25611U 97029C   26257.23828380 -.00000261  00000-0  00000-0 0  9998
2 25611  13.8363 352.5643 0223504  82.8971 297.5798  1.02878357 49506

Traccia FENGYUN 2A AKM in tempo reale con AllMySat

Download on the App Store